When you browse on this site, cookies collect data to enhance your experience and personalize the content and advertising you see.
Visit our Privacy Policy to learn more. By continuing to use the site, you agree to this use of cookies and data.
  • In United Kingdom
  • List of Countries
  • For 7 days
  • Water Temperature
  • Satellite Maps
  • Weather Map
  • Weather Widgets
  • user-avatar
    Login

    Hourly Weather Holhol

    Today, 21 May, Tuesday

    Time Temperature Precipitation Wind Pressure Humidity
    00:00 +30°C° 0 mm 2 mps 713 mmHg 63%
    01:00 +30°C° 0 mm 2 mps 713 mmHg 65%
    02:00 +30°C° 0 mm 2 mps 713 mmHg 66%
    03:00 +29°C° 0 mm 1 mps 713 mmHg 69%
    04:00 +29°C° 0.3 mm 1 mps 713 mmHg 70%
    05:00 +29°C° 0.3 mm 2 mps 713 mmHg 71%
    06:00 +28°C° 0.3 mm 2 mps 713 mmHg 73%
    07:00 +29°C° 0.7 mm 2 mps 713 mmHg 68%
    08:00 +30°C° 0.7 mm 3 mps 714 mmHg 64%
    09:00 +32°C° 0 mm 4 mps 714 mmHg 59%
    10:00 +33°C° 0.8 mm 4 mps 714 mmHg 56%
    11:00 +34°C° 0.8 mm 5 mps 714 mmHg 52%
    12:00 +35°C° 0.8 mm 5 mps 714 mmHg 49%
    13:00 +35°C° 0.1 mm 6 mps 713 mmHg 49%
    14:00 +35°C° 0.1 mm 6 mps 713 mmHg 49%
    15:00 +35°C° 0.1 mm 6 mps 712 mmHg 49%
    16:00 +34°C° 0 mm 6 mps 712 mmHg 52%
    17:00 +33°C° 0 mm 5 mps 712 mmHg 55%
    18:00 +32°C° 0 mm 5 mps 712 mmHg 57%
    19:00 +32°C° 0 mm 5 mps 712 mmHg 60%
    20:00 +32°C° 0 mm 4 mps 712 mmHg 62%
    21:00 +30°C° 0 mm 4 mps 713 mmHg 65%
    22:00 +30°C° 0 mm 3 mps 713 mmHg 66%
    23:00 +30°C° 0 mm 3 mps 713 mmHg 68%

    Tomorrow, 22 May, Wednesday

    Time Temperature Precipitation Wind Pressure Humidity
    00:00 +29°C° 0 mm 3 mps 713 mmHg 69%
    01:00 +29°C° 1 mm 3 mps 713 mmHg 70%
    02:00 +29°C° 1 mm 3 mps 713 mmHg 71%
    03:00 +29°C° 1 mm 2 mps 712 mmHg 72%
    04:00 +29°C° 0.6 mm 2 mps 712 mmHg 72%
    05:00 +29°C° 0.6 mm 2 mps 713 mmHg 72%
    06:00 +28°C° 0.6 mm 2 mps 713 mmHg 72%
    07:00 +29°C° 0 mm 3 mps 713 mmHg 68%
    08:00 +30°C° 0 mm 3 mps 714 mmHg 63%
    09:00 +32°C° 0 mm 4 mps 714 mmHg 59%
    10:00 +33°C° 0.4 mm 4 mps 714 mmHg 55%
    11:00 +34°C° 0.4 mm 5 mps 714 mmHg 52%
    12:00 +35°C° 0.4 mm 5 mps 714 mmHg 49%
    13:00 +35°C° 0.3 mm 5 mps 714 mmHg 49%
    14:00 +35°C° 0.3 mm 5 mps 713 mmHg 50%
    15:00 +35°C° 0.3 mm 5 mps 713 mmHg 51%
    16:00 +34°C° 0.2 mm 5 mps 712 mmHg 54%
    17:00 +33°C° 0.2 mm 4 mps 712 mmHg 57%
    18:00 +32°C° 0.2 mm 4 mps 712 mmHg 60%
    19:00 +31°C° 0.7 mm 3 mps 712 mmHg 62%
    20:00 +31°C° 0.7 mm 3 mps 713 mmHg 64%
    21:00 +30°C° 0.7 mm 2 mps 713 mmHg 65%
    22:00 +30°C° 2.2 mm 2 mps 713 mmHg 67%
    23:00 +30°C° 2.2 mm 2 mps 713 mmHg 68%

    Day after tomorrow, 23 May, Thursday

    Time Temperature Precipitation Wind Pressure Humidity
    00:00 +29°C° 2.2 mm 1 mps 713 mmHg 69%
    01:00 +29°C° 1.5 mm 1 mps 713 mmHg 68%
    02:00 +29°C° 1.5 mm 1 mps 713 mmHg 66%
    03:00 +29°C° 1.5 mm 1 mps 713 mmHg 65%
    04:00 +27°C° 0.4 mm 0 mps 713 mmHg 65%
    05:00 +27°C° 0.4 mm 0 mps 713 mmHg 64%
    06:00 +27°C° 0.4 mm 0 mps 713 mmHg 64%
    07:00 +30°C° 0.5 mm 1 mps 714 mmHg 62%
    08:00 +30°C° 0.5 mm 1 mps 715 mmHg 59%
    09:00 +30°C° 0.5 mm 1 mps 715 mmHg 57%
    10:00 +31°C° 0.7 mm 1 mps 715 mmHg 54%
    11:00 +32°C° 0.7 mm 2 mps 715 mmHg 51%
    12:00 +34°C° 0.7 mm 2 mps 715 mmHg 48%
    13:00 +34°C° 0.4 mm 3 mps 714 mmHg 47%
    14:00 +35°C° 0.4 mm 4 mps 713 mmHg 46%
    15:00 +35°C° 0.4 mm 4 mps 713 mmHg 45%
    16:00 +34°C° 0.1 mm 4 mps 712 mmHg 48%
    17:00 +34°C° 0.1 mm 4 mps 712 mmHg 50%
    18:00 +33°C° 0.1 mm 5 mps 712 mmHg 52%
    19:00 +32°C° 0 mm 4 mps 713 mmHg 55%
    20:00 +31°C° 0 mm 3 mps 713 mmHg 57%
    21:00 +30°C° 0 mm 2 mps 713 mmHg 59%
    22:00 +30°C° 0 mm 2 mps 713 mmHg 59%
    23:00 +30°C° 0 mm 2 mps 713 mmHg 60%

    24 May, Friday

    Time Temperature Precipitation Wind Pressure Humidity
    00:00 +30°C° 0 mm 1 mps 713 mmHg 61%
    01:00 +30°C° 0 mm 1 mps 713 mmHg 62%
    02:00 +29°C° 0 mm 1 mps 713 mmHg 64%
    03:00 +29°C° 0 mm 1 mps 712 mmHg 65%
    04:00 +29°C° 0.1 mm 1 mps 713 mmHg 67%
    05:00 +28°C° 0.1 mm 1 mps 713 mmHg 69%
    06:00 +28°C° 0.1 mm 1 mps 713 mmHg 70%
    07:00 +29°C° 0.6 mm 2 mps 714 mmHg 65%
    08:00 +30°C° 0.6 mm 3 mps 714 mmHg 60%
    09:00 +31°C° 0.6 mm 3 mps 715 mmHg 55%
    10:00 +33°C° 0.1 mm 4 mps 715 mmHg 50%
    11:00 +35°C° 0.1 mm 4 mps 715 mmHg 46%
    12:00 +36°C° 0.1 mm 5 mps 714 mmHg 41%
    13:00 +36°C° 0 mm 5 mps 713 mmHg 41%
    14:00 +36°C° 0 mm 5 mps 713 mmHg 41%
    15:00 +38°C° 0 mm 6 mps 712 mmHg 41%
    16:00 +35°C° 0 mm 5 mps 712 mmHg 45%
    17:00 +34°C° 0 mm 5 mps 712 mmHg 50%
    18:00 +33°C° 0 mm 5 mps 712 mmHg 55%
    19:00 +33°C° 0 mm 4 mps 712 mmHg 57%
    20:00 +31°C° 0 mm 3 mps 713 mmHg 59%
    21:00 +31°C° 0 mm 2 mps 713 mmHg 61%
    22:00 +30°C° 0 mm 3 mps 713 mmHg 61%
    23:00 +30°C° 0 mm 3 mps 713 mmHg 61%

    25 May, Saturday

    Time Temperature Precipitation Wind Pressure Humidity
    00:00 +30°C° 0 mm 3 mps 713 mmHg 61%
    01:00 +30°C° 0 mm 3 mps 713 mmHg 62%
    02:00 +30°C° 0 mm 2 mps 712 mmHg 63%
    03:00 +30°C° 0 mm 2 mps 712 mmHg 64%
    04:00 +29°C° 0 mm 2 mps 712 mmHg 64%
    05:00 +29°C° 0 mm 2 mps 713 mmHg 64%
    06:00 +29°C° 0 mm 1 mps 713 mmHg 65%
    07:00 +30°C° 0 mm 2 mps 714 mmHg 59%
    08:00 +31°C° 0 mm 3 mps 714 mmHg 53%
    09:00 +33°C° 0 mm 3 mps 715 mmHg 47%
    10:00 +34°C° 0 mm 3 mps 714 mmHg 43%
    11:00 +35°C° 0 mm 3 mps 714 mmHg 40%
    12:00 +36°C° 0 mm 4 mps 714 mmHg 37%
    13:00 +36°C° 0 mm 4 mps 713 mmHg 37%
    14:00 +37°C° 0 mm 4 mps 712 mmHg 36%
    15:00 +37°C° 0 mm 5 mps 712 mmHg 36%
    16:00 +36°C° 0 mm 4 mps 712 mmHg 39%
    17:00 +35°C° 0 mm 4 mps 711 mmHg 42%
    18:00 +34°C° 0 mm 4 mps 711 mmHg 45%
    19:00 +34°C° 0 mm 3 mps 712 mmHg 47%
    20:00 +32°C° 0 mm 2 mps 712 mmHg 49%
    21:00 +31°C° 0 mm 1 mps 712 mmHg 51%
    22:00 +31°C° 0 mm 1 mps 712 mmHg 52%
    23:00 +31°C° 0 mm 1 mps 712 mmHg 53%

    26 May, Sunday

    Time Temperature Precipitation Wind Pressure Humidity
    00:00 +30°C° 0 mm 1 mps 712 mmHg 54%
    01:00 +30°C° 0 mm 1 mps 711 mmHg 55%
    02:00 +30°C° 0 mm 1 mps 711 mmHg 57%
    03:00 +29°C° 0 mm 1 mps 711 mmHg 58%
    04:00 +29°C° 0 mm 1 mps 711 mmHg 59%
    05:00 +29°C° 0 mm 1 mps 712 mmHg 60%
    06:00 +29°C° 0 mm 1 mps 712 mmHg 61%
    07:00 +30°C° 0 mm 1 mps 712 mmHg 57%
    08:00 +31°C° 0 mm 2 mps 713 mmHg 53%
    09:00 +33°C° 0 mm 3 mps 713 mmHg 48%
    10:00 +34°C° 0 mm 3 mps 713 mmHg 44%
    11:00 +35°C° 0 mm 3 mps 713 mmHg 40%
    12:00 +37°C° 0 mm 4 mps 712 mmHg 36%
    13:00 +37°C° 0 mm 4 mps 712 mmHg 36%
    14:00 +37°C° 0 mm 5 mps 711 mmHg 35%
    15:00 +37°C° 0 mm 5 mps 710 mmHg 35%
    16:00 +36°C° 0 mm 5 mps 710 mmHg 37%
    17:00 +35°C° 0 mm 4 mps 710 mmHg 39%
    18:00 +34°C° 0 mm 4 mps 710 mmHg 41%
    19:00 +34°C° 0 mm 3 mps 711 mmHg 44%
    20:00 +33°C° 0 mm 3 mps 711 mmHg 46%
    21:00 +31°C° 0 mm 2 mps 711 mmHg 48%
    22:00 +31°C° 0 mm 2 mps 711 mmHg 49%
    23:00 +31°C° 0 mm 2 mps 711 mmHg 51%
    Show more